(231299) = 2006 BH145

Discovered at Catalina on 2006-01-23 by CSS.

Orbit

Orbit type: Main Belt

Note: WebGL enabled browser required.

epoch2024-03-31.0
epoch JD2460400.5
perihelion date2023-07-17.99924
perihelion JD2460143.49924
argument of perihelion (°)165.87731
ascending node (°)335.70656
inclination (°)13.85362
eccentricity0.0664691
perihelion distance (AU)2.5006233
Tisserand w.r.t. Jupiter3.3
ΔV w.r.t. Earth (km/sec)10.8
semimajor axis (AU)2.6786722
mean anomaly (°)57.77752
mean daily motion (°/day)0.22481460
aphelion distance (AU)2.857
period (years)4.38
P-vector [x]-0.78643869
P-vector [y]0.54091927
P-vector [z]0.29819546
Q-vector [x]-0.60976240
Q-vector [y]-0.60290791
Q-vector [z]-0.51448214
absolute magnitude15.73
phase slope0.15
uncertainty0
referenceMPEC 2024-E133
observations used569
oppositions12
arc length (days)6642
first opposition used2004
last opposition used2023
residual rms (arc-secs)0.64
perturbers coarse indicatorM-v
perturbers precise indicator003Ek
first observation date used2004-11-03.0
last observation date used2023-01-10.0
computer nameMPCLINUX
JD of orbit computation2456612.643815
perihelion JD uncertainty (days)5.4156E-04
argument of perihelion uncertainty (°)1.6234E-04
ascending node uncertainty (°)2.9837E-05
inclination uncertainty (°)1.5954E-05
eccentricity uncertainty 3.6664E-07
perihelion distance uncertainty (AU)1.0917E-06
Minimum Orbit Intersection Distances (in AU)
for orbit epoch: 2460400.5, reference: E2024-GH2
Mercury2.14414
Venus1.78211
Earth1.51452
Mars0.83742
Jupiter2.14766
Saturn6.57968
Uranus15.9291
Neptune27.0946

Observations

584 total observations over interval: 2004 11 03.34837 – 2023 01 10.267530
These data are available for download (format description).

Date (UT) J2000 RA J2000 Dec Magn Location Ref
2004 11 03.34837 01 48 57.45 +31 53 06.3 19.1 R 703 – Catalina Sky Survey MPS 254521
2004 11 03.35972 01 48 56.75 +31 53 03.8 18.3 R 703 – Catalina Sky Survey MPS 254521
2004 11 03.36869 01 48 56.26 +31 53 03.2 19.9 R 703 – Catalina Sky Survey MPS 254521
2004 11 03.37899 01 48 55.44 +31 53 00.4 18.6 R 703 – Catalina Sky Survey MPS 254521
2006 01 20.48899 11 00 22.05 +09 49 54.4   691 – Steward Observatory, Kitt Peak-Spacewatch MPS 162040
2006 01 20.50635 11 00 21.57 +09 49 52.3   691 – Steward Observatory, Kitt Peak-Spacewatch MPS 162040
2006 01 20.52370 11 00 21.12 +09 49 49.8   691 – Steward Observatory, Kitt Peak-Spacewatch MPS 162040
2006 01 23.34603 10 59 03.01 +09 44 12.7 19.6 V 703 – Catalina Sky Survey MPS 162040
2006 01 23.35252 10 59 02.90 +09 44 11.9 19.1 V 703 – Catalina Sky Survey MPS 162040
2006 01 23.35897 10 59 02.61 +09 44 11.6 19.5 V 703 – Catalina Sky Survey MPS 162040
2006 01 23.36544 10 59 02.36 +09 44 11.6 19.0 V 703 – Catalina Sky Survey MPS 162040
2006 01 24.42850 10 58 29.20 +09 42 16.9 18.8 R 699 – Lowell Observatory-LONEOS MPS 162040
2006 01 24.44495 10 58 28.59 +09 42 12.9   699 – Lowell Observatory-LONEOS MPS 162040
2006 01 24.46139 10 58 27.99 +09 42 12.9   699 – Lowell Observatory-LONEOS MPS 162040
2006 01 24.47785 10 58 27.56 +09 42 10.3   699 – Lowell Observatory-LONEOS MPS 162040
2006 01 30.40608 10 54 47.08 +09 33 36.0 19.0 V 703 – Catalina Sky Survey MPS 162040
2006 01 30.41314 10 54 46.76 +09 33 35.9 19.2 V 703 – Catalina Sky Survey MPS 162040
2006 01 30.42022 10 54 46.44 +09 33 36.3 19.1 V 703 – Catalina Sky Survey MPS 162040
2006 01 30.42729 10 54 46.22 +09 33 35.6 19.1 V 703 – Catalina Sky Survey MPS 162040
2006 01 31.39813 10 54 04.68 +09 32 29.2 19.4 V 691 – Steward Observatory, Kitt Peak-Spacewatch MPS 162040
2006 01 31.41552 10 54 03.88 +09 32 27.8 19.4 V 691 – Steward Observatory, Kitt Peak-Spacewatch MPS 162040
2006 01 31.43291 10 54 03.09 +09 32 26.6 19.4 V 691 – Steward Observatory, Kitt Peak-Spacewatch MPS 162040
2006 02 04.40827 10 50 58.04 +09 28 42.5 19.4 V 691 – Steward Observatory, Kitt Peak-Spacewatch MPS 162930
2006 02 04.42560 10 50 57.16 +09 28 41.8 19.3 V 691 – Steward Observatory, Kitt Peak-Spacewatch MPS 162930
2006 02 04.44411 10 50 56.20 +09 28 40.8 19.4 V 691 – Steward Observatory, Kitt Peak-Spacewatch MPS 162930
2006 02 06.31036 10 49 21.93 +09 27 17.9 18.6 R 699 – Lowell Observatory-LONEOS MPS 162930
2006 02 06.33233 10 49 20.71 +09 27 17.2   699 – Lowell Observatory-LONEOS MPS 162930
2006 02 06.35425 10 49 19.52 +09 27 17.5   699 – Lowell Observatory-LONEOS MPS 162930
2006 02 06.37326 10 49 18.48 +09 27 15.9 19.5 V 703 – Catalina Sky Survey MPS 162930
2006 02 06.37621 10 49 18.32 +09 27 16.2   699 – Lowell Observatory-LONEOS MPS 162930
2006 02 06.38030 10 49 18.01 +09 27 15.7 18.5 V 703 – Catalina Sky Survey MPS 162930
2006 02 06.38730 10 49 17.76 +09 27 15.4 18.6 V 703 – Catalina Sky Survey MPS 162930
2006 02 06.39432 10 49 17.32 +09 27 15.1 18.9 V 703 – Catalina Sky Survey MPS 162930
2006 02 07.35869 10 48 26.67 +09 26 39.0 20.2 V 703 – Catalina Sky Survey MPS 162930
2006 02 07.36621 10 48 26.31 +09 26 38.1 19.2 V 703 – Catalina Sky Survey MPS 162930
2006 02 07.37378 10 48 25.81 +09 26 38.6 19.1 V 703 – Catalina Sky Survey MPS 162930
2006 02 07.38135 10 48 25.41 +09 26 37.6 18.9 V 703 – Catalina Sky Survey MPS 162930
2006 02 21.28414 10 34 36.30 +09 22 02.1 18.2 R 699 – Lowell Observatory-LONEOS MPS 163945
2006 02 21.30973 10 34 34.54 +09 22 01.5   699 – Lowell Observatory-LONEOS MPS 163945
2006 02 21.33533 10 34 32.90 +09 22 00.6   699 – Lowell Observatory-LONEOS MPS 163945
2006 02 21.36093 10 34 31.20 +09 22 01.0   699 – Lowell Observatory-LONEOS MPS 163945
2006 02 24.33583 10 31 19.95 +09 21 29.9 18.2   704 – Lincoln Laboratory ETS, New Mexico MPS 163945
2006 02 24.34752 10 31 19.13 +09 21 29.3 18.5   704 – Lincoln Laboratory ETS, New Mexico MPS 163945
2006 02 24.35922 10 31 18.37 +09 21 29.4 18.2   704 – Lincoln Laboratory ETS, New Mexico MPS 163945
2006 02 24.37091 10 31 17.57 +09 21 29.7 19.1   704 – Lincoln Laboratory ETS, New Mexico MPS 163945
2006 02 24.38260 10 31 16.78 +09 21 28.3 18.5   704 – Lincoln Laboratory ETS, New Mexico MPS 163945
2006 02 24.86407 10 30 45.77 +09 21 21.2 18.4 V A50 – Andrushivka Astronomical Observatory MPS 166184
2006 02 24.88259 10 30 44.55 +09 21 21.0 18.8 V A50 – Andrushivka Astronomical Observatory MPS 166184
2006 02 25.17124 10 30 26.29 +09 21 19.6 18.9 V 691 – Steward Observatory, Kitt Peak-Spacewatch MPS 165176
2006 02 25.18850 10 30 25.15 +09 21 19.4 18.9 V 691 – Steward Observatory, Kitt Peak-Spacewatch MPS 165176
2006 02 25.20578 10 30 24.02 +09 21 19.4 18.9 V 691 – Steward Observatory, Kitt Peak-Spacewatch MPS 165176
2006 02 27.35304 10 28 05.36 +09 20 52.0 18.4   704 – Lincoln Laboratory ETS, New Mexico MPS 165176
2006 02 27.36476 10 28 04.58 +09 20 51.7 18.5   704 – Lincoln Laboratory ETS, New Mexico MPS 165176
2006 02 27.37650 10 28 03.81 +09 20 51.8 18.4   704 – Lincoln Laboratory ETS, New Mexico MPS 165176
2006 02 27.38824 10 28 03.04 +09 20 52.1 18.6   704 – Lincoln Laboratory ETS, New Mexico MPS 165176
2006 02 28.29633 10 27 04.89 +09 20 38.1 18.8 V G96 – Mt. Lemmon Survey MPS 165176
2006 02 28.30185 10 27 04.53 +09 20 38.1 18.8 V G96 – Mt. Lemmon Survey MPS 165176
2006 02 28.30737 10 27 04.17 +09 20 38.0 18.8 V G96 – Mt. Lemmon Survey MPS 165176
2006 02 28.31296 10 27 03.81 +09 20 38.0 18.8 V G96 – Mt. Lemmon Survey MPS 165176
2006 03 03.23800 10 23 58.13 +09 19 45.7 18.4 R 699 – Lowell Observatory-LONEOS MPS 165176
2006 03 03.24351 10 23 57.81 +09 19 45.9 18.4   704 – Lincoln Laboratory ETS, New Mexico MPS 165176
2006 03 03.25506 10 23 57.04 +09 19 45.1 19.2   704 – Lincoln Laboratory ETS, New Mexico MPS 165176
2006 03 03.26358 10 23 56.46 +09 19 44.8   699 – Lowell Observatory-LONEOS MPS 165176
2006 03 03.26671 10 23 56.24 +09 19 45.5 18.6   704 – Lincoln Laboratory ETS, New Mexico MPS 165176
2006 03 03.29677 10 23 54.30 +09 19 44.0   699 – Lowell Observatory-LONEOS MPS 165176
2006 03 03.32391 10 23 52.59 +09 19 44.1   699 – Lowell Observatory-LONEOS MPS 165176
2006 03 05.28212 10 21 50.58 +09 18 59.0 18.4   704 – Lincoln Laboratory ETS, New Mexico MPS 166184
2006 03 05.28335 10 21 50.54 +09 18 57.9 18.4   704 – Lincoln Laboratory ETS, New Mexico MPS 166184
2006 03 05.30601 10 21 49.07 +09 18 58.2 19.5   704 – Lincoln Laboratory ETS, New Mexico MPS 166184
2006 03 05.30634 10 21 49.04 +09 18 56.6 18.6   704 – Lincoln Laboratory ETS, New Mexico MPS 166184
2006 03 05.31786 10 21 48.28 +09 18 57.6 19.3   704 – Lincoln Laboratory ETS, New Mexico MPS 166184
2006 03 05.31806 10 21 48.26 +09 18 56.5 19.0   704 – Lincoln Laboratory ETS, New Mexico MPS 166184
2006 03 05.32956 10 21 47.56 +09 18 56.6 18.9   704 – Lincoln Laboratory ETS, New Mexico MPS 166184
2006 03 05.32964 10 21 47.57 +09 18 56.9 19.2   704 – Lincoln Laboratory ETS, New Mexico MPS 166184
2006 03 23.19944 10 06 09.82 +09 01 35.3 19.6 V 703 – Catalina Sky Survey MPS 167147
2006 03 23.20811 10 06 09.43 +09 01 34.0 19.6 V 703 – Catalina Sky Survey MPS 167147
2006 03 23.21673 10 06 09.00 +09 01 32.5 19.4 V 703 – Catalina Sky Survey MPS 167147
2006 03 23.22534 10 06 08.67 +09 01 31.6 19.7 V 703 – Catalina Sky Survey MPS 167147
2006 03 24.12473 10 05 33.02 +09 00 03.5 19.7 V 691 – Steward Observatory, Kitt Peak-Spacewatch MPS 167147
2006 03 24.14610 10 05 32.15 +09 00 01.3 19.7 V 691 – Steward Observatory, Kitt Peak-Spacewatch MPS 167147
2006 03 24.16746 10 05 31.23 +08 59 58.3 20.1 V 691 – Steward Observatory, Kitt Peak-Spacewatch MPS 167147
2006 03 24.28512 10 05 26.51 +08 59 47.8 19.7 R 644 – Palomar Mountain/NEAT MPS 167147
2006 03 24.30617 10 05 25.66 +08 59 45.2 20.0 R 644 – Palomar Mountain/NEAT MPS 167147
2006 03 24.32945 10 05 24.71 +08 59 43.0 19.9 R 644 – Palomar Mountain/NEAT MPS 167147
2008 08 25.33851 00 09 21.73 +08 04 13.9 20.2   704 – Lincoln Laboratory ETS, New Mexico MPS 254521
2008 08 25.36389 00 09 20.69 +08 04 16.2 20.2   704 – Lincoln Laboratory ETS, New Mexico MPS 254521
2008 08 25.37646 00 09 20.13 +08 04 18.4 20.8   704 – Lincoln Laboratory ETS, New Mexico MPS 254521
